Regional Weather Roundup
Issued by NWS

Home | Current Version | Previous Version | Text Only | Print | Product List | Glossary On
Versions: 1 2 3 4 5 6 7 8 9 10 11 12 13 14 15 16 17 18 19 20 21 22 23 24 25 26 27 28 29 30 31 32 33 34 35 36 37 38 39 40 41 42 43 44 45 46 47 48 49
000
ASUS44 KLIX 082310
RWRLA
LOUISIANA WEATHER ROUNDUP
NATIONAL WEATHER SERVICE NEW ORLEANS LA
500 PM CST MON FEB 08 2016

NOTE: "FAIR" INDICATES FEW OR NO CLOUDS BELOW 12,000 FEET WITH NO
      SIGNIFICANT WEATHER AND/OR OBSTRUCTIONS TO VISIBILITY.
      SKY/WX - SKY CONDITION AND SIGNIFICANT WEATHER.
      TMP - AIR TEMPERATURE.    DP   - DEWPOINT TEMPERATURE.
      RH  - RELATIVE HUMIDITY.  PRES - PRESSURE.
      HX  - HEAT INDEX.         WCI  - WIND CHILL INDEX.

*  THESE STATIONS ARE NOT NWS OR FAA STATIONS AND ARE NOT UNDER
   NWS QUALITY CONTROL.

LAZ040-048-061>063-065-066-069-090000-
SOUTHEAST LOUISIANA

CITY           SKY/WX    TMP DP  RH WIND       PRES   REMARKS
N.O. AUDUBON   NOT AVBL
N.O. INTL ARPT PTCLDY    57  13  17 NW24G39   30.03R
N.O. LAKEFRONT CLEAR     55  29  36 NW31G38   30.02R
N.O. DOWNTOWN* FAIR      57  12  17 MISG      30.04R
RESERVE*       FAIR      58   4  11 NW24G35   30.04R
SLIDELL        CLEAR     56  15  20 NW10G32   30.00R
BATON ROUGE    CLEAR     55  12  18 NW17G35   30.06R
BOOTHVILLE     CLEAR     58  20  22 NW24G31   30.01R
BELLE CHASSE   PTCLDY    57  10  15 NW16G32   30.01R
BOGALUSA*        N/A     55  12  18 NW20G33   30.03R
GALLIANO*      CLEAR    N/A N/A N/A W22G31    30.03R
NEW ROADS*     FAIR      54  15  21 W18G31    30.07F
GONZALES*      FAIR      56  15  19 NW21      30.05R
HAMMOND*       CLEAR     55   7  14 NW20G35   30.03R
HOUMA*         PTCLDY    57  10  15 NW24G35   30.04R
PORT FOURCHON* CLEAR     59  25  27 NW25G35   30.04R

$$

LAZ041-044-053-054-090000-
SOUTHWEST LOUISIANA

CITY           SKY/WX    TMP DP  RH WIND       PRES   REMARKS
LAKE CHARLES   SUNNY     58  10  15 NW22G31   30.12F
LAFAYETTE      CLEAR     57  15  19 NW21G31   30.09S
PATTERSON      CLEAR     57  12  17 NW26G35   30.06R
SALT POINT       N/A     57  31  37 W15G24    30.07R
NEW IBERIA     CLEAR     56  15  20 NW23G38   30.09R
CHENAULT AIRPK SUNNY     57  14  18 NW22G28   30.12S

$$

LAZ027-028-090000-
CENTRAL LOUISIANA

CITY           SKY/WX    TMP DP  RH WIND       PRES   REMARKS
FORT POLK      CLEAR     54   8  15 NW26G36   30.12
ALEXANDRIA INT CLEAR     54  10  17 NW25G36   30.09R
ALEXANDRIA     CLEAR     56   9  15 NW14G24   30.08S

$$

LAZ001-002-090000-
NORTHWEST LOUISIANA

CITY           SKY/WX    TMP DP  RH WIND       PRES   REMARKS
SHREVEPORT     PTCLDY    54   8  16 NW21G29   30.12S
BARKSDALE AFB  CLEAR     53  10  18 NW24      30.11S
DTN SHREVEPORT CLEAR     53   6  15 NW18G35   30.12S

$$

LAZ014-016-090000-
NORTHEAST LOUISIANA

CITY           SKY/WX    TMP DP  RH WIND       PRES   REMARKS
MONROE         MOCLDY    52  17  25 NW20G32   30.05S
TALLULAH       CLOUDY    51  17  26 NW13G23   30.04S

$$




USA.gov is the U.S. government's official web portal to all federal, state and local government web resources and services.